{"data":{"norad_id":48670,"epoch":"2026-05-25T04:17:35.666592Z","epoch_age_seconds":73688,"freshness":"FRESH","line1":"1 48670U 21044AJ  26145.17888503  .00000427  00000+0  25521-4 0  9995","line2":"2 48670  53.1572 108.4461 0001080  92.5087 267.6038 15.31703450275672","mean_motion":15.3170345,"eccentricity":0.000108,"inclination_deg":53.1572,"raan_deg":108.4461,"arg_perigee_deg":92.5087,"mean_anomaly_deg":267.6038,"bstar":2.5521e-5,"rev_number":27567,"period_min":94.012976206328,"perigee_km":469.99003336969,"apogee_km":471.46938857926,"semimajor_km":6848.8667109745,"source":"CELESTRAK","updated_at":"2026-05-25T13:38:16.758716Z"}}